Location: Newark
(39.9267°N, 1.8017°W)
Time: 20:17:09
(UTC+00:00)

ISS - Visible Passes

Search period start: 20 October 2019 00:00
Search period end: 30 October 2019 00:00
Orbit: 411 x 421 km, 51.6° (Epoch: 20 October)

Date Brightness Start Highest point End Pass type
(mag) Time Alt. Az. Time Alt. Az. Time Alt. Az.
23 Oct -1.4 05:34:06 10° S 05:36:54 25° SE 05:39:43 10° ENE visible
24 Oct -0.8 04:46:36 10° SSE 04:48:29 14° SE 04:50:21 10° E visible
25 Oct -3.6 05:32:53 10° SW 05:36:14 75° SE 05:39:36 10° NE visible
26 Oct -2.6 04:46:39 31° S 04:47:40 40° SE 04:50:51 10° ENE visible
27 Oct -0.8 04:00:39 17° E 04:00:39 17° E 04:01:51 10° E visible
27 Oct -3.2 05:33:36 18° W 05:35:43 40° NNW 05:38:56 10° NE visible
28 Oct -3.5 04:47:24 60° N 04:47:24 60° N 04:50:23 10° NE visible
29 Oct -0.7 04:01:05 15° ENE 04:01:05 15° ENE 04:01:43 10° ENE visible
29 Oct -2.1 05:34:00 17° NW 05:35:22 21° NNW 05:38:01 10° NNE visible
